Location: NJAA Observatory
(40.6819°N, 74.8979°W)
Time: 05:12:07
(UTC-04:00)

Vanguard 1 - All Passes

Search period start: 26 March 2017 00:00
Search period end: 05 April 2017 00:00
Orbit: 654 x 3830 km, 34.2° (Epoch: 22 March)

Date Brightness Start Highest point End Pass type
(mag) Time Alt. Az. Time Alt. Az. Time Alt. Az.
26 Mar - 07:35:41 10° S 07:37:34 11° SSE 07:39:15 10° SE daylight
26 Mar - 09:52:56 10° SW 09:57:44 28° SSE 10:01:36 10° ESE daylight
26 Mar - 12:13:04 10° WSW 12:17:16 38° S 12:21:44 10° ESE daylight
26 Mar - 14:33:04 10° WSW 14:36:55 24° SSW 14:41:59 10° SE daylight
27 Mar - 07:54:16 10° SSW 07:58:42 16° SSE 08:02:10 10° ESE daylight
27 Mar - 10:13:45 10° SW 10:18:43 33° S 10:22:45 10° ESE daylight
27 Mar - 12:34:08 10° WSW 12:38:13 35° S 12:42:42 10° ESE daylight
27 Mar - 14:54:36 10° WSW 14:57:58 18° SSW 15:02:11 10° SSE daylight
28 Mar - 08:14:10 10° SSW 08:19:48 22° SSE 08:23:54 10° ESE daylight
28 Mar - 10:34:42 10° WSW 10:39:43 38° S 10:43:49 10° ESE daylight
28 Mar - 12:55:16 10° WSW 12:59:11 30° SSW 13:03:34 10° SE daylight
28 Mar - 15:16:48 10° SW 15:19:01 12° SSW 15:21:35 10° S daylight
29 Mar - 06:16:50 10° S 06:20:05 12° SSE 06:22:50 10° SE visible
29 Mar - 08:34:37 10° SW 08:40:53 28° SSE 08:45:15 10° ESE daylight
29 Mar - 10:55:46 10° WSW 11:00:41 40° S 11:04:50 10° ESE daylight
29 Mar - 13:16:30 10° WSW 13:20:08 24° SSW 13:24:14 10° SE daylight
30 Mar - 06:35:15 10° SSW 06:41:18 17° SSE 06:45:46 10° ESE daylight
30 Mar - 08:55:23 10° SW 09:01:56 34° S 09:06:25 10° ESE daylight
30 Mar - 11:16:54 10° WSW 11:21:38 38° S 11:25:46 10° ESE daylight
30 Mar - 13:37:56 10° WSW 13:41:04 18° SSW 13:44:35 10° SSE daylight
31 Mar - 06:54:58 10° SSW 07:02:30 23° SSE 07:07:37 10° ESE daylight
31 Mar - 09:16:22 10° WSW 09:22:58 40° S 09:27:29 10° ESE daylight
31 Mar - 11:38:05 10° WSW 11:42:35 34° S 11:46:38 10° SE daylight
31 Mar - 13:59:55 10° SW 14:02:01 13° SSW 14:04:18 10° S daylight
01 Apr - 04:57:29 10° S 05:02:08 13° SSE 05:05:58 10° SE visible
01 Apr - 07:15:16 10° SW 07:23:41 30° SSE 07:29:03 10° ESE daylight
01 Apr - 09:37:30 10° WSW 09:43:59 43° S 09:48:28 10° ESE daylight
01 Apr - 11:59:19 10° WSW 12:03:29 29° SSW 12:07:22 10° SE daylight
02 Apr - 05:15:31 10° SSW 05:23:27 18° SSE 05:29:10 10° ESE visible
02 Apr - 07:35:59 10° SW 07:44:49 36° SSE 07:50:16 10° ESE daylight
02 Apr - 09:58:43 10° WSW 10:04:59 44° S 10:09:24 10° ESE daylight
02 Apr - 12:20:43 10° WSW 12:24:22 22° SSW 12:27:53 10° SSE daylight
03 Apr - 05:34:55 10° SSW 05:44:44 24° SSE 05:51:12 10° ESE visible
03 Apr - 07:56:58 10° WSW 08:05:56 42° S 08:11:20 10° E daylight
03 Apr - 10:19:59 10° WSW 10:25:57 42° S 10:30:16 10° ESE daylight
03 Apr - 12:42:23 10° WSW 12:45:12 16° SSW 12:47:59 10° SSE daylight
04 Apr - 03:38:07 10° S 03:43:38 13° SSE 03:48:16 10° SE visible
04 Apr - 05:55:01 10° SW 06:06:00 31° SSE 06:12:45 10° ESE visible
04 Apr - 08:18:08 10° WSW 08:27:01 47° S 08:32:21 10° ESE daylight
04 Apr - 10:41:19 10° W 10:46:52 37° SSW 10:51:03 10° SE daylight
04 Apr - 13:05:14 10° SW 13:06:01 10° SSW 13:06:49 10° SSW daylight
